Location: Rounton
(54.4000°N, 1.3500°W)
Time: 13:35:34
(UTC+00:00)

Transit 2A Rocket - Pass Details

Date: 09 December 2021
Orbit: 584 x 918 km, 66.7° (Epoch: 21 January)

Event Time Altitude Azimuth Distance (km) Brightness Sun altitude
Rises 09:39:20 0° 272° (W) 3,485 8.1 7.2°
Reaches altitude 10° 09:42:09 10° 283° (WNW) 2,579 7.3 7.4°
Maximum altitude 09:47:24 30° 344° (NNW) 1,601 6.2 7.8°
Drops below altitude 10° 09:52:43 10° 44° (NE) 2,618 7.6 8.2°
Sets 09:55:36 0° 55° (NE) 3,547 8.4 8.4°
